This is the latest recevied weather packets stored in our database for station/object K4MUW-4. If no packets are shown the sender has not sent any weather packets the latest 10 day(s).
| Time | Temp. | Humidity | Pressure | Rain* | Wind** | Luminosity | Snow |
|---|---|---|---|---|---|---|---|
| 1777933692 | 25.56° C | 26% | 1011 hPa | 0 mm | 0 m/s | - | - |
| 1777933392 | 25.56° C | 25% | 1011 hPa | 0 mm | 2.68 m/s, 202° | - | - |
| 1777933091 | 25.56° C | 26% | 1011 hPa | 0 mm | 0 m/s | - | - |
| 1777932791 | 25.56° C | 26% | 1011 hPa | 0 mm | 1.34 m/s, 196° | - | - |
| 1777932490 | 25.56° C | 27% | 1011 hPa | 0 mm | 1.79 m/s, 254° | - | - |
| 1777932190 | 25.56° C | 27% | 1011 hPa | 0 mm | 1.34 m/s, 193° | - | - |
| 1777931890 | 25.56° C | 26% | 1011 hPa | 0 mm | 1.79 m/s, 249° | - | - |
| 1777931589 | 25.56° C | 27% | 1011 hPa | 0 mm | 0 m/s | - | - |
| 1777931289 | 25.56° C | 27% | 1011 hPa | 0 mm | 1.79 m/s, 165° | - | - |
| 1777930989 | 25.56° C | 27% | 1011 hPa | 0 mm | 1.34 m/s, 192° | - | - |
| 1777930688 | 25.56° C | 28% | 1011 hPa | 0 mm | 0 m/s | - | - |
| 1777930388 | 25.56° C | 28% | 1011 hPa | 0 mm | 2.24 m/s, 184° | - | - |
| 1777930083 | 25.56° C | 28% | 1011 hPa | 0 mm | 1.79 m/s, 167° | - | - |
| 1777929782 | 25.56° C | 29% | 1011 hPa | 0 mm | 1.79 m/s, 198° | - | - |
| 1777929482 | 25.56° C | 28% | 1011 hPa | 0 mm | 1.34 m/s, 200° | - | - |
| 1777929181 | 25° C | 29% | 1011 hPa | 0 mm | 1.34 m/s, 250° | - | - |
| 1777928881 | 25° C | 30% | 1011 hPa | 0 mm | 2.68 m/s, 185° | - | - |
| 1777928581 | 25° C | 30% | 1011 hPa | 0 mm | 2.24 m/s, 165° | - | - |
| 1777928280 | 25° C | 30% | 1011 hPa | 0 mm | 1.34 m/s, 295° | - | - |
| 1777927980 | 25° C | 30% | 1011 hPa | 0 mm | 1.34 m/s, 199° | - | - |
| 1777927680 | 25° C | 30% | 1011 hPa | 0 mm | 1.79 m/s, 141° | - | - |
| 1777927379 | 24.44° C | 30% | 1011 hPa | 0 mm | 0 m/s | - | - |
| 1777927079 | 24.44° C | 30% | 1011 hPa | 0 mm | 0 m/s | - | - |
| 1777926778 | 24.44° C | 30% | 1011 hPa | 0 mm | 0 m/s | - | - |
| 1777926655 | 25° C | 30% | 1011 hPa | 0 mm | 0 m/s | - | - |
* Rain latest hour (hover to see other rain measurements)
** Current wind speed in m/s (hover to see current wind gust speed)